Location: Saint-Palais-sur-Mer
(45.6429°N, 1.0859°W)
Time: 23:50:42
(UTC+01:00)

Tiros 1 despin weight - Pass Details

Date: 15 February 2026
Orbit: 556 x 593 km, 48.2° (Epoch: 13 March)

Event Time Altitude Azimuth Distance (km) Brightness Sun altitude
Rises 21:19:43 0° 287° (WNW) 2,735 ? -29.9°
Reaches altitude 10° 21:21:58 10° 288° (WNW) 1,840 ? -30.3°
Enters shadow 21:24:02 28° 289° (WNW) 1,057 ? -30.7°
Maximum altitude 21:26:11 88° 23° (NNE) 563 - -31.0°
Drops below altitude 10° 21:30:24 10° 109° (ESE) 1,849 - -31.7°
Sets 21:32:40 0° 109° (ESE) 2,749 - -32.1°
